Hourly Data Report for July 12, 2017

TORONTO CITY
ONTARIO

43°40'00.000" N
79°24'00.000" W
112.50 m
6158355
71508
XTO

Download Data

Hourly Data (July 2017)
Hourly Data Report for July 12, 2017
TIME
LST
Temp Definition
°C
Dew Point Definition
°C
Rel Hum Definition
%
Precip. Amount Definition
mm

Wind Dir Definition
10's deg

Wind Spd Definition
km/h
Visibility Definition
km
Stn Press Definition
kPa
Hmdx Definition


Wind Chill Definition


Weather Definition


00:00 22.1 18.1 78 0.0 LegendMM LegendMM   99.96 28   LegendNANA
01:00 22.7 18.2 76 0.0 LegendMM LegendMM   99.99 29   LegendNANA
02:00 21.8 17.7 77 0.0 LegendMM LegendMM   99.97 28   LegendNANA
03:00 21.1 17.1 78 0.0 LegendMM LegendMM   100.00 26   LegendNANA
04:00 20.9 17.0 79 0.0 LegendMM LegendMM   99.98 26   LegendNANA
05:00 20.8 17.2 80 0.0 LegendMM LegendMM   100.05 26   LegendNANA
06:00 21.4 17.5 78 0.0 LegendMM LegendMM   100.07 27   LegendNANA
07:00 22.6 17.9 75 0.0 LegendMM LegendMM   100.02 29   LegendNANA
08:00 23.2 18.5 75 0.0 LegendMM LegendMM   100.14 30   LegendNANA
09:00 24.7 19.5 73 0.0 LegendMM LegendMM   100.11 32   LegendNANA
10:00 24.6 20.0 76 0.0 LegendMM LegendMM   100.08 32   LegendNANA
11:00 25.7 19.6 69 0.0 LegendMM LegendMM   100.12 33   LegendNANA
12:00 25.9 19.9 70 0.0 LegendMM LegendMM   100.07 33   LegendNANA
13:00 24.9 20.3 76 0.0 LegendMM LegendMM   100.04 33   LegendNANA
14:00 25.6 21.0 76 0.0 LegendMM LegendMM   100.03 34   LegendNANA
15:00 24.4 20.5 79 0.0 LegendMM LegendMM   100.00 32   LegendNANA
16:00 24.1 20.9 82 0.0 LegendMM LegendMM   99.97 32   LegendNANA
17:00 24.0 20.6 81 0.0 LegendMM LegendMM   99.96 32   LegendNANA
18:00 24.4 20.2 77 0.0 LegendMM LegendMM   99.90 32   LegendNANA
19:00 24.3 20.5 79 0.0 LegendMM LegendMM   99.94 32   LegendNANA
20:00 23.4 19.9 81 0.0 LegendMM LegendMM   99.91 31   LegendNANA
21:00 23.1 20.1 84 0.0 LegendMM LegendMM   99.92 31   LegendNANA
22:00 22.9 20.2 85 0.0 LegendMM LegendMM   99.96 31   LegendNANA
23:00 22.3 19.5 85 0.0 LegendMM LegendMM   99.98 29   LegendNANA

Notes on Data Quality.

Legend

  • E = Estimated
  • M = Missing
  • NA = Not Available*
  • [empty] = Indicates an unobserved value
Date modified: